K4MUW-4 Weather Reports


time (UTC)temp
F
wind
direction
speed
knots
gust
knots
rain 1hr
in
rain 24hr
in
rain mn
in
humidity
%
barometer
mb
20260505194755 78 188 4.3 8.7 0.00 0.00 0.00 24 1011.0
20260505194254 78 147 5.2 9.6 0.00 0.00 0.00 24 1011.0
20260505193754 78 160 3.5 7.0 0.00 0.00 0.00 24 1011.0
20260505193244 78 205 5.2 7.8 0.00 0.00 0.00 24 1011.0
20260505192743 78 190 3.5 9.6 0.00 0.00 0.00 24 1011.0
20260505192243 78 180 3.5 8.7 0.00 0.00 0.00 23 1011.0
20260505191743 78 215 4.3 8.7 0.00 0.00 0.00 24 1011.0
20260505191238 78 188 4.3 8.7 0.00 0.00 0.00 24 1011.0
20260505190733 78 201 5.2 8.7 0.00 0.00 0.00 24 1011.0
20260505190232 78 176 0.0 6.1 0.00 0.00 0.00 26 1011.0
20260505185732 77 176 2.6 7.8 0.00 0.00 0.00 25 1011.0
20260505185231 77 172 2.6 7.8 0.00 0.00 0.00 25 1011.0
20260505184731 77 184 3.5 4.3 0.00 0.00 0.00 25 1011.0
20260505184134 77 210 0.0 7.8 0.00 0.00 0.00 25 1011.0
20260505183629 77 170 2.6 8.7 0.00 0.00 0.00 24 1011.0
20260505183124 77 238 4.3 6.1 0.00 0.00 0.00 24 1012.0
20260505182614 77 199 3.5 5.2 0.00 0.00 0.00 24 1012.0
20260505182114 77 251 2.6 8.7 0.00 0.00 0.00 26 1012.0
20260505181614 77 189 3.5 8.7 0.00 0.00 0.00 26 1011.0
20260505181113 77 218 4.3 7.0 0.00 0.00 0.00 26 1011.0
20260505180613 77 162 2.6 8.7 0.00 0.00 0.00 26 1011.0
20260505180112 77 187 5.2 7.0 0.00 0.00 0.00 26 1012.0
20260505175612 76 152 3.5 4.3 0.00 0.00 0.00 26 1012.0
20260505175112 76 205 2.6 7.0 0.00 0.00 0.00 25 1012.0
20260505174611 76 121 5.2 6.1 0.00 0.00 0.00 25 1012.0
20260505174111 76 196 3.5 7.8 0.00 0.00 0.00 28 1012.0
20260505173611 77 211 3.5 7.8 0.00 0.00 0.00 28 1012.0
20260505173110 77 197 3.5 8.7 0.00 0.00 0.00 30 1012.0
20260505172610 76 189 5.2 7.0 0.00 0.00 0.00 30 1012.0
20260505172110 76 223 4.3 5.2 0.00 0.00 0.00 30 1012.0
20260505171609 76 121 2.6 7.8 0.00 0.00 0.00 31 1012.0
20260505171109 76 272 4.3 8.7 0.00 0.00 0.00 32 1012.0
20260505170608 75 186 4.3 6.1 0.00 0.00 0.00 31 1012.0
20260505170108 75 179 4.3 13.0 0.00 0.00 0.00 31 1012.0
20260505165608 75 190 7.8 10.4 0.00 0.00 0.00 31 1012.0
20260505165107 75 182 3.5 9.6 0.00 0.00 0.00 32 1012.0
20260505164607 74 131 3.5 10.4 0.00 0.00 0.00 32 1012.0
20260505164101 74 247 5.2 8.7 0.00 0.00 0.00 32 1012.0
20260505163601 74 277 3.5 8.7 0.00 0.00 0.00 32 1012.0
20260505163056 74 197 5.2 9.6 0.00 0.00 0.00 34 1012.0
20260505162555 73 150 4.3 6.1 0.00 0.00 0.00 37 1012.0
20260505162055 73 172 3.5 10.4 0.00 0.00 0.00 38 1012.0
20260505161550 72 268 4.3 7.8 0.00 0.00 0.00 40 1012.0
20260505161049 72 170 4.3 9.6 0.00 0.00 0.00 39 1012.0
20260505160549 72 258 4.3 8.7 0.00 0.00 0.00 38 1012.0
20260505153004 69 184 3.5 6.1 0.00 0.00 0.00 52 1013.0
20260505152504 69 178 2.6 5.2 0.00 0.00 0.00 52 1013.0
20260505152003 69 190 3.5 5.2 0.00 0.00 0.00 55 1013.0
20260505151503 68 181 3.5 6.1 0.00 0.00 0.00 55 1013.0
20260505151002 68 189 2.6 5.2 0.00 0.00 0.00 57 1013.0
20260505150457 67 168 3.5 4.3 0.00 0.00 0.00 59 1013.0
20260505140438 62 195 0.0 3.5 0.00 0.00 0.00 68 1013.0
20260505124932 55 192 0.0 0.0 0.00 0.00 0.00 74 1012.0
20260505124432 54 192 0.0 0.0 0.00 0.00 0.00 74 1012.0
20260505123931 54 192 0.0 0.0 0.00 0.00 0.00 74 1012.0
20260505123431 53 192 0.0 0.0 0.00 0.00 0.00 73 1012.0
20260505122930 53 192 0.0 0.0 0.00 0.00 0.00 73 1012.0
20260505122430 53 192 0.0 0.0 0.00 0.00 0.00 73 1012.0
20260505121930 53 192 0.0 0.0 0.00 0.00 0.00 73 1012.0
20260505121429 53 192 0.0 0.0 0.00 0.00 0.00 73 1012.0
20260505120929 53 192 0.0 0.0 0.00 0.00 0.00 73 1012.0
20260505120428 52 192 0.0 0.0 0.00 0.00 0.00 72 1012.0
20260505115928 52 192 0.0 0.0 0.00 0.00 0.00 72 1012.0
20260505115429 52 192 0.0 0.0 0.00 0.00 0.00 72 1012.0
20260505114927 52 192 0.0 0.0 0.00 0.00 0.00 72 1012.0
20260505114426 52 192 0.0 0.0 0.00 0.00 0.00 72 1012.0
20260505113926 52 192 0.0 0.0 0.00 0.00 0.00 72 1012.0
20260505113426 52 192 0.0 0.0 0.00 0.00 0.00 71 1012.0
20260505112925 52 192 0.0 0.0 0.00 0.00 0.00 71 1011.0
20260505112425 51 192 0.0 0.0 0.00 0.00 0.00 71 1011.0
20260505111924 51 192 0.0 0.0 0.00 0.00 0.00 71 1011.0
20260505111424 51 192 0.0 0.0 0.00 0.00 0.00 71 1011.0
20260505111019 51 193 0.0 0.0 0.00 0.00 0.00 71 1011.0
20260505110923 51 193 0.0 0.0 0.00 0.00 0.00 71 1011.0
20260505110423 51 192 0.0 0.0 0.00 0.00 0.00 71 1011.0
20260505101919 52 192 0.0 0.0 0.00 0.00 0.00 68 1011.0
20260505101419 52 192 0.0 0.0 0.00 0.00 0.00 67 1011.0
20260505100918 52 192 0.0 0.0 0.00 0.00 0.00 67 1011.0
20260505100418 52 192 0.0 0.0 0.00 0.00 0.00 68 1011.0
20260505095917 52 192 0.0 0.0 0.00 0.00 0.00 67 1011.0
20260505095417 52 192 0.0 0.0 0.00 0.00 0.00 67 1011.0
20260505094917 52 192 0.0 0.0 0.00 0.00 0.00 66 1011.0
20260505094416 52 192 0.0 0.0 0.00 0.00 0.00 66 1011.0
20260505093916 53 192 0.0 0.0 0.00 0.00 0.00 66 1011.0
20260505093415 53 192 0.0 0.0 0.00 0.00 0.00 66 1011.0
20260505092915 53 192 0.0 0.0 0.00 0.00 0.00 66 1011.0
20260505092414 53 192 0.0 0.0 0.00 0.00 0.00 66 1011.0
20260505091914 53 192 0.0 0.0 0.00 0.00 0.00 65 1011.0
20260505091414 53 192 0.0 0.0 0.00 0.00 0.00 65 1011.0
20260505090913 53 192 0.0 0.0 0.00 0.00 0.00 65 1011.0
20260505090413 53 192 0.0 0.0 0.00 0.00 0.00 64 1011.0
20260505085912 53 192 0.0 0.0 0.00 0.00 0.00 64 1011.0
20260505085412 53 192 0.0 0.0 0.00 0.00 0.00 63 1011.0
20260505084912 53 192 0.0 2.6 0.00 0.00 0.00 63 1011.0
20260505084411 53 192 0.0 2.6 0.00 0.00 0.00 63 1011.0
20260505083911 53 192 0.0 2.6 0.00 0.00 0.00 63 1011.0
20260505083410 53 192 0.0 0.0 0.00 0.00 0.00 63 1011.0
20260505082910 53 192 0.0 0.0 0.00 0.00 0.00 62 1011.0
20260505082409 53 192 0.0 3.5 0.00 0.00 0.00 62 1011.0
20260505081909 53 192 0.0 4.3 0.00 0.00 0.00 61 1011.0
20260505081408 54 163 0.0 0.0 0.00 0.00 0.00 62 1011.0
20260505080908 54 163 0.0 0.0 0.00 0.00 0.00 60 1011.0
20260505080408 54 163 0.0 0.0 0.00 0.00 0.00 60 1011.0
20260505075907 54 163 0.0 0.0 0.00 0.00 0.00 60 1011.0
20260505075407 54 163 0.0 3.5 0.00 0.00 0.00 60 1011.0
20260505074906 54 163 2.6 2.6 0.00 0.00 0.00 59 1011.0
20260505074406 55 163 0.0 0.0 0.00 0.00 0.00 59 1011.0
20260505073906 55 163 0.0 2.6 0.00 0.00 0.00 59 1011.0
20260505073405 55 163 0.0 0.0 0.00 0.00 0.00 58 1011.0
20260505072905 55 163 0.0 0.0 0.00 0.00 0.00 58 1011.0
20260505072404 55 163 0.0 0.0 0.00 0.00 0.00 58 1011.0
20260505071904 55 163 0.0 2.6 0.00 0.00 0.00 58 1011.0
20260505071403 55 163 0.0 0.0 0.00 0.00 0.00 57 1011.0
20260505070903 55 163 0.0 0.0 0.00 0.00 0.00 56 1011.0
20260505070403 55 163 0.0 0.0 0.00 0.00 0.00 56 1011.0
20260505065902 55 163 0.0 0.0 0.00 0.00 0.00 56 1011.0
20260505065402 56 163 0.0 0.0 0.00 0.00 0.00 56 1011.0
20260505064901 56 163 0.0 0.0 0.00 0.00 0.00 56 1011.0
20260505064401 56 163 0.0 0.0 0.00 0.00 0.00 56 1011.0
20260505063901 56 163 0.0 2.6 0.00 0.00 0.00 55 1011.0
20260505063802 56 163 2.6 2.6 0.00 0.00 0.00 56 1011.0
20260505063400 56 163 2.6 2.6 0.00 0.00 0.00 56 1011.0
20260505062937 56 163 0.0 0.0 0.00 0.00 0.00 54 1011.0
20260505062900 56 163 0.0 0.0 0.00 0.00 0.00 54 1011.0
20260505062359 56 163 0.0 0.0 0.00 0.00 0.00 54 1011.0
20260505061859 56 163 0.0 0.0 0.00 0.00 0.00 54 1011.0
20260505061358 56 163 0.0 0.0 0.00 0.00 0.00 54 1011.0
20260505060858 56 163 0.0 0.0 0.00 0.00 0.00 54 1011.0
20260505060358 56 163 0.0 0.0 0.00 0.00 0.00 54 1011.0
20260505055857 56 163 0.0 2.6 0.00 0.00 0.00 53 1011.0
20260505055357 56 163 0.0 3.5 0.00 0.00 0.00 54 1011.0
20260505054857 57 161 0.0 0.0 0.00 0.00 0.00 54 1011.0
20260505054356 57 162 0.0 2.6 0.00 0.00 0.00 53 1012.0
20260505053856 57 161 0.0 3.5 0.00 0.00 0.00 52 1012.0
20260505053355 57 161 0.0 0.0 0.00 0.00 0.00 51 1012.0
20260505052855 58 161 0.0 0.0 0.00 0.00 0.00 51 1012.0
20260505052355 58 161 0.0 0.0 0.00 0.00 0.00 51 1012.0
20260505051854 58 161 0.0 0.0 0.00 0.00 0.00 51 1012.0
20260505051354 58 161 0.0 0.0 0.00 0.00 0.00 50 1012.0
20260505050853 58 161 0.0 0.0 0.00 0.00 0.00 50 1012.0
20260505050601 58 161 0.0 0.0 0.00 0.00 0.00 50 1012.0
20260505050353 58 161 0.0 0.0 0.00 0.00 0.00 50 1012.0
20260505041349 60 161 0.0 0.0 0.00 0.00 0.00 48 1011.0
20260505040848 60 161 0.0 0.0 0.00 0.00 0.00 47 1011.0
20260505040348 60 161 0.0 2.6 0.00 0.00 0.00 47 1011.0
20260505035848 60 161 0.0 0.0 0.00 0.00 0.00 47 1012.0
20260505035819 60 161 0.0 0.0 0.00 0.00 0.00 47 1012.0
20260505035347 60 161 0.0 0.0 0.00 0.00 0.00 47 1012.0
20260505034847 60 161 0.0 0.0 0.00 0.00 0.00 47 1012.0
20260505034346 61 161 0.0 0.0 0.00 0.00 0.00 47 1012.0
20260505033846 61 161 0.0 0.0 0.00 0.00 0.00 46 1012.0
20260505033346 61 161 0.0 0.0 0.00 0.00 0.00 46 1012.0
20260505032845 61 161 0.0 0.0 0.00 0.00 0.00 46 1012.0
20260505032345 61 161 0.0 0.0 0.00 0.00 0.00 46 1012.0
20260505031844 61 161 0.0 0.0 0.00 0.00 0.00 46 1012.0
20260505031344 62 161 0.0 0.0 0.00 0.00 0.00 46 1012.0
20260505030843 62 161 0.0 0.0 0.00 0.00 0.00 46 1012.0
20260505030343 62 161 0.0 0.0 0.00 0.00 0.00 45 1012.0
20260505025843 62 161 0.0 0.0 0.00 0.00 0.00 45 1012.0
20260505025342 62 161 0.0 0.0 0.00 0.00 0.00 45 1012.0
20260505024842 62 161 0.0 0.0 0.00 0.00 0.00 45 1012.0
20260505024341 62 161 0.0 0.0 0.00 0.00 0.00 45 1012.0
20260505023841 62 161 0.0 0.0 0.00 0.00 0.00 45 1012.0
20260505023422 62 161 0.0 0.0 0.00 0.00 0.00 45 1012.0
20260505023341 62 161 0.0 0.0 0.00 0.00 0.00 45 1012.0
20260505022840 62 161 0.0 0.0 0.00 0.00 0.00 45 1012.0
20260505022340 62 161 0.0 0.0 0.00 0.00 0.00 45 1012.0
20260505021839 63 161 0.0 0.0 0.00 0.00 0.00 45 1012.0
20260505021339 63 161 0.0 0.0 0.00 0.00 0.00 45 1011.0
20260505020839 63 161 0.0 0.0 0.00 0.00 0.00 45 1011.0
20260505020338 63 161 0.0 2.6 0.00 0.00 0.00 45 1011.0
20260505015838 63 161 0.0 0.0 0.00 0.00 0.00 44 1011.0
20260505015338 64 161 0.0 0.0 0.00 0.00 0.00 44 1011.0
20260505014837 64 161 0.0 0.0 0.00 0.00 0.00 44 1011.0
20260505014337 64 161 0.0 0.0 0.00 0.00 0.00 44 1011.0
20260505013836 64 161 0.0 0.0 0.00 0.00 0.00 43 1011.0
20260505013336 64 161 0.0 0.0 0.00 0.00 0.00 44 1011.0
20260505012836 64 161 0.0 0.0 0.00 0.00 0.00 43 1011.0
20260505012335 65 161 0.0 0.0 0.00 0.00 0.00 43 1011.0
20260505011835 65 161 0.0 2.6 0.00 0.00 0.00 43 1011.0
20260505011334 65 161 0.0 2.6 0.00 0.00 0.00 43 1011.0
20260505010834 66 161 2.6 2.6 0.00 0.00 0.00 43 1011.0
20260505010329 66 161 0.0 0.0 0.00 0.00 0.00 41 1011.0
20260505005828 66 161 0.0 0.0 0.00 0.00 0.00 41 1011.0
20260505005328 67 161 0.0 0.0 0.00 0.00 0.00 41 1011.0
20260505004828 67 161 0.0 0.0 0.00 0.00 0.00 41 1011.0
20260505004327 67 161 0.0 0.0 0.00 0.00 0.00 41 1011.0
20260505003827 68 161 0.0 0.0 0.00 0.00 0.00 40 1011.0
20260505003326 68 161 0.0 0.0 0.00 0.00 0.00 39 1011.0
20260505002826 69 161 0.0 0.0 0.00 0.00 0.00 38 1011.0
20260505002325 70 161 0.0 0.0 0.00 0.00 0.00 37 1011.0
20260505001825 71 161 0.0 0.0 0.00 0.00 0.00 36 1011.0
20260505001325 72 161 0.0 0.0 0.00 0.00 0.00 34 1011.0
20260505000824 72 161 0.0 2.6 0.00 0.00 0.00 33 1011.0
20260505000550 74 161 0.0 0.0 0.00 0.00 0.00 32 1011.0
20260505000324 74 161 0.0 0.0 0.00 0.00 0.00 32 1011.0
20260504235823 74 161 0.0 2.6 0.00 0.00 0.00 31 1011.0
20260504235323 75 161 0.0 3.5 0.00 0.00 0.00 30 1011.0
20260504234823 75 160 3.5 7.0 0.00 0.00 0.00 29 1011.0
20260504234322 76 181 3.5 5.2 0.00 0.00 0.00 29 1011.0
20260504233822 76 186 2.6 7.0 0.00 0.00 0.00 28 1011.0
20260504233432 76 192 2.6 6.1 0.00 0.00 0.00 28 1011.0
20260504233322 76 192 2.6 6.1 0.00 0.00 0.00 28 1011.0
20260504232821 76 186 4.3 6.1 0.00 0.00 0.00 27 1011.0
20260504232321 77 188 0.0 3.5 0.00 0.00 0.00 26 1011.0
20260504231820 77 187 2.6 3.5 0.00 0.00 0.00 26 1010.0
20260504231320 77 228 0.0 3.5 0.00 0.00 0.00 25 1010.0
20260504230815 78 227 0.0 6.1 0.00 0.00 0.00 25 1010.0
20260504230315 78 166 3.5 5.2 0.00 0.00 0.00 25 1011.0
20260504225814 78 198 2.6 5.2 0.00 0.00 0.00 25 1011.0
20260504225314 78 223 2.6 7.0 0.00 0.00 0.00 25 1011.0
20260504224813 78 194 2.6 6.1 0.00 0.00 0.00 25 1011.0
20260504224313 78 180 3.5 7.0 0.00 0.00 0.00 25 1011.0
20260504223813 78 178 3.5 5.2 0.00 0.00 0.00 25 1011.0
20260504223312 78 183 3.5 4.3 0.00 0.00 0.00 26 1011.0
20260504222812 78 186 0.0 7.8 0.00 0.00 0.00 26 1011.0
20260504222311 78 202 5.2 7.0 0.00 0.00 0.00 25 1011.0
20260504221811 78 195 0.0 6.1 0.00 0.00 0.00 26 1011.0
20260504221311 78 196 2.6 7.0 0.00 0.00 0.00 26 1011.0
20260504220810 78 254 3.5 5.2 0.00 0.00 0.00 27 1011.0
20260504220310 78 193 2.6 7.0 0.00 0.00 0.00 27 1011.0
20260504215810 78 249 3.5 7.0 0.00 0.00 0.00 26 1011.0
20260504215309 78 165 0.0 4.3 0.00 0.00 0.00 27 1011.0
20260504214809 78 165 3.5 5.2 0.00 0.00 0.00 27 1011.0
20260504214308 78 192 2.6 6.1 0.00 0.00 0.00 27 1011.0
20260504213808 78 162 0.0 6.1 0.00 0.00 0.00 28 1011.0
20260504213308 78 184 4.3 5.2 0.00 0.00 0.00 28 1011.0
20260504212802 78 167 3.5 7.8 0.00 0.00 0.00 28 1011.0
20260504212304 78 198 3.5 4.3 0.00 0.00 0.00 29 1011.0
20260504211802 78 200 2.6 6.1 0.00 0.00 0.00 28 1011.0
20260504211301 77 250 2.6 7.0 0.00 0.00 0.00 29 1011.0
20260504210801 77 185 5.2 6.1 0.00 0.00 0.00 30 1011.0
20260504210301 77 165 4.3 5.2 0.00 0.00 0.00 30 1011.0
20260504205800 77 295 2.6 4.3 0.00 0.00 0.00 30 1011.0
20260504205300 77 199 2.6 5.2 0.00 0.00 0.00 30 1011.0
20260504204759 77 141 3.5 5.2 0.00 0.00 0.00 30 1011.0
20260504204259 76 189 0.0 0.0 0.00 0.00 0.00 30 1011.0
20260504203759 76 189 0.0 0.0 0.00 0.00 0.00 30 1011.0
20260504203258 76 189 0.0 3.5 0.00 0.00 0.00 30 1011.0
20260504203054 77 189 0.0 5.2 0.00 0.00 0.00 30 1011.0
20260504202758 77 189 0.0 5.2 0.00 0.00 0.00 30 1011.0
20260504202253 77 178 3.5 7.0 0.00 0.00 0.00 30 1011.0
20260504201753 77 157 3.5 6.1 0.00 0.00 0.00 30 1011.0
20260504201248 76 197 3.5 4.3 0.00 0.00 0.00 30 1011.0
20260504200747 77 180 0.0 0.0 0.00 0.00 0.00 30 1011.0
20260504200247 77 181 0.0 5.2 0.00 0.00 0.00 30 1011.0
20260504195742 77 214 3.5 6.1 0.00 0.00 0.00 30 1011.0
20260504195237 76 193 3.5 5.2 0.00 0.00 0.00 30 1011.0